Location: Follega
(52.8850°N, 5.7362°E)
Time: 04:17:52
(UTC+00:00)

Cosmos 1340 Rocket - Pass Details

Date: 01 June 2020
Orbit: 530 x 558 km, 81.2° (Epoch: 04 July)

Event Time Altitude Azimuth Distance (km) Brightness Sun altitude
Rises 23:30:33 0° 337° (NNW) 2,742 7.7 -14.9°
Reaches altitude 10° 23:33:00 10° 325° (NW) 1,846 6.3 -14.9°
Maximum altitude 23:36:20 25° 269° (W) 1,145 4.4 -14.9°
Enters shadow 23:38:28 17° 226° (SW) 1,466 4.6 -14.9°
